Change the Weather History Date:

Wednesday, November 20, 2013

  Actual Average Record
Temperature  
Mean Temperature 34 °F -  
Max Temperature 39 °F 45 °F 69 °F (2003)
Min Temperature 30 °F 29 °F 3 °F (2014)
Degree Days  
Heating Degree Days 30    
Moisture  
Dew Point 30 °F    
Average Humidity 78    
Maximum Humidity 93    
Minimum Humidity 61    
Precipitation  
Precipitation 0.42 in - - ()
Sea Level Pressure  
Sea Level Pressure 30.14 in    
Wind  
Wind Speed 13 mph (SE)    
Max Wind Speed 21 mph    
Max Gust Speed 24 mph    
Visibility 8 miles    
Events      
Averages and records for this station are not official NWS values.
T = Trace of Precipitation, MM = Missing Value Source: NWS Daily Summary

Daily Weather History Graph

Daily Weather History Graph

Search for Another Location

Airport or City:

Trip Planner

Search our weather history database for the weather conditions in past years. The results will help you decide how hot, cold, wet, or windy it might be!

Date:

Astronomy

Nov. 20, 2013 Rise Set
Actual Time 6:57 AM CST 4:36 PM CST
Civil Twilight 6:26 AM CST 5:06 PM CST
Nautical Twilight 5:52 AM CST 5:40 PM CST
Astronomical Twilight 5:19 AM CST 6:13 PM CST
Moon 7:19 PM CST (11/20) 9:22 AM CST (11/20)
Length of Visible Light 10h 40m
Length of Day
9h 39m
Waning Gibbous, 91% of the Moon is Illuminated
Nov 20
Waning Gibbous
Nov 25
Last Quarter
Dec 2
New
Dec 9
First Quarter
Dec 17
Full

Hourly Weather History & Observations

Time (CST) Temp. Windchill Dew Point Humidity Pressure Visibility Wind Dir Wind Speed Gust Speed Precip Events Conditions
12:15 AM 33.8 °F 25.3 °F 26.6 °F 75% 30.23 in 10.0 mi SSE 11.5 mph - N/A   Clear
12:35 AM 33.8 °F 25.8 °F 26.6 °F 75% 30.23 in 10.0 mi SSE 10.4 mph - N/A   Partly Cloudy
12:55 AM 33.8 °F 26.4 °F 26.6 °F 75% 30.23 in 10.0 mi SSE 9.2 mph - N/A   Partly Cloudy
1:15 AM 30.2 °F 21.3 °F 26.6 °F 86% 30.23 in 10.0 mi SE 10.4 mph - N/A   Clear
1:35 AM 32.0 °F 24.2 °F 26.6 °F 80% 30.23 in 10.0 mi SE 9.2 mph - N/A   Clear
1:55 AM 33.8 °F 26.4 °F 26.6 °F 75% 30.23 in 10.0 mi SE 9.2 mph - N/A   Scattered Clouds
2:15 AM 33.8 °F 24.8 °F 26.6 °F 75% 30.23 in 10.0 mi SE 12.7 mph - N/A   Scattered Clouds
2:35 AM 33.8 °F 24.8 °F 26.6 °F 75% 30.23 in 10.0 mi SE 12.7 mph - N/A   Partly Cloudy
2:55 AM 33.8 °F 25.3 °F 26.6 °F 75% 30.22 in 10.0 mi SE 11.5 mph - N/A   Mostly Cloudy
3:15 AM 33.8 °F 24.8 °F 26.6 °F 75% 30.22 in 10.0 mi SE 12.7 mph - N/A   Partly Cloudy
3:35 AM 33.8 °F 24.3 °F 26.6 °F 75% 30.21 in 10.0 mi SE 13.8 mph - N/A   Scattered Clouds
3:55 AM 33.8 °F 23.2 °F 26.6 °F 75% 30.19 in 10.0 mi SE 17.3 mph - N/A   Mostly Cloudy
4:15 AM 33.8 °F 23.9 °F 26.6 °F 75% 30.19 in 10.0 mi SE 15.0 mph - N/A   Mostly Cloudy
4:35 AM 33.8 °F 24.3 °F 26.6 °F 75% 30.19 in 10.0 mi SSE 13.8 mph - N/A   Mostly Cloudy
4:55 AM 33.8 °F 23.9 °F 26.6 °F 75% 30.19 in 10.0 mi SE 15.0 mph 20.7 mph N/A   Overcast
5:15 AM 33.8 °F 23.5 °F 26.6 °F 75% 30.18 in 10.0 mi SSE 16.1 mph - N/A   Overcast
5:35 AM 33.8 °F 23.2 °F 26.6 °F 75% 30.17 in 10.0 mi SE 17.3 mph - N/A   Mostly Cloudy
5:55 AM 33.8 °F 23.5 °F 26.6 °F 75% 30.16 in 10.0 mi SE 16.1 mph - N/A   Mostly Cloudy
6:15 AM 33.8 °F 23.2 °F 26.6 °F 75% 30.17 in 10.0 mi SE 17.3 mph 21.9 mph N/A   Scattered Clouds
6:35 AM 33.8 °F 23.2 °F 26.6 °F 75% 30.17 in 10.0 mi SE 17.3 mph - N/A   Mostly Cloudy
6:55 AM 33.8 °F 23.5 °F 26.6 °F 75% 30.17 in 10.0 mi SE 16.1 mph - N/A   Overcast
7:15 AM 33.8 °F 23.5 °F 26.6 °F 75% 30.18 in 10.0 mi SE 16.1 mph - N/A   Mostly Cloudy
7:35 AM 33.8 °F 23.9 °F 26.6 °F 75% 30.19 in 10.0 mi SSE 15.0 mph - N/A   Scattered Clouds
7:55 AM 33.8 °F 24.8 °F 26.6 °F 75% 30.19 in 10.0 mi SSE 12.7 mph - N/A   Mostly Cloudy
8:15 AM 33.8 °F 24.3 °F 26.6 °F 75% 30.20 in 10.0 mi SSE 13.8 mph - N/A   Scattered Clouds
8:35 AM 33.8 °F 26.4 °F 26.6 °F 75% 30.21 in 10.0 mi SSE 9.2 mph - N/A   Mostly Cloudy
8:55 AM 35.6 °F 27.5 °F 26.6 °F 70% 30.21 in 10.0 mi SSE 11.5 mph - N/A   Overcast
9:15 AM 35.6 °F 26.6 °F 26.6 °F 70% 30.20 in 10.0 mi SSE 13.8 mph - N/A   Overcast
9:35 AM 35.6 °F 25.5 °F 26.6 °F 70% 30.20 in 10.0 mi SSE 17.3 mph 20.7 mph N/A   Overcast
9:55 AM 35.6 °F 24.5 °F 26.6 °F 70% 30.19 in 10.0 mi SSE 20.7 mph - N/A   Overcast
10:15 AM 37.4 °F 27.5 °F 26.6 °F 65% 30.18 in 10.0 mi SSE 18.4 mph - N/A   Mostly Cloudy
10:35 AM 37.4 °F 27.5 °F 26.6 °F 65% 30.17 in 10.0 mi SSE 18.4 mph - N/A   Scattered Clouds
10:55 AM 37.4 °F 27.2 °F 26.6 °F 65% 30.16 in 10.0 mi SSE 19.6 mph 23.0 mph N/A   Mostly Cloudy
11:15 AM 37.4 °F 28.2 °F 28.4 °F 70% 30.15 in 10.0 mi SSE 16.1 mph 21.9 mph N/A   Mostly Cloudy
11:35 AM 39.2 °F 29.8 °F 26.6 °F 61% 30.14 in 10.0 mi SE 18.4 mph - N/A   Mostly Cloudy
11:55 AM 39.2 °F 30.2 °F 28.4 °F 65% 30.14 in 10.0 mi SSE 17.3 mph - N/A   Mostly Cloudy
12:15 PM 39.2 °F 29.8 °F 28.4 °F 65% 30.12 in 10.0 mi SE 18.4 mph - N/A   Partly Cloudy
12:35 PM 39.2 °F 29.3 °F 28.4 °F 65% 30.10 in 10.0 mi SE 20.7 mph 24.2 mph N/A   Partly Cloudy
12:55 PM 39.2 °F 30.2 °F 28.4 °F 65% 30.09 in 10.0 mi SE 17.3 mph - N/A   Clear
1:15 PM 39.2 °F 30.8 °F 28.4 °F 65% 30.08 in 10.0 mi SSE 15.0 mph - N/A   Clear
1:35 PM 39.2 °F 33.0 °F 28.4 °F 65% 30.10 in 10.0 mi SSE 9.2 mph - N/A   Mostly Cloudy
1:55 PM 37.4 °F 32.1 °F 30.2 °F 75% 30.10 in 10.0 mi SSE 6.9 mph - 0.02 in   Overcast
2:15 PM 37.4 °F 32.1 °F 32.0 °F 81% 30.10 in 8.0 mi SSE 6.9 mph - 0.01 in   Overcast
2:35 PM 37.4 °F 30.8 °F 32.0 °F 81% 30.09 in 7.0 mi SE 9.2 mph - 0.04 in   Overcast
2:55 PM 37.4 °F 30.3 °F 33.8 °F 87% 30.08 in 6.0 mi SE 10.4 mph - 0.07 in   Overcast
3:15 PM 37.4 °F 28.5 °F 32.0 °F 81% 30.07 in 8.0 mi SE 15.0 mph - 0.01 in   Overcast
3:35 PM 37.4 °F 30.8 °F 32.0 °F 81% 30.06 in 8.0 mi SE 9.2 mph - 0.02 in   Overcast
3:55 PM 37.4 °F 30.8 °F 32.0 °F 81% 30.06 in 7.0 mi SE 9.2 mph - 0.02 in   Overcast
4:15 PM 37.4 °F 32.1 °F 33.8 °F 87% 30.08 in 5.0 mi SE 6.9 mph - 0.01 in   Overcast
4:35 PM 37.4 °F 32.1 °F 32.0 °F 81% 30.09 in 6.0 mi SSE 6.9 mph - 0.03 in   Overcast
4:55 PM 37.4 °F 30.8 °F 33.8 °F 87% 30.10 in 7.0 mi SSE 9.2 mph - 0.05 in   Overcast
5:15 PM 37.4 °F 29.8 °F 33.8 °F 87% 30.08 in 5.0 mi ESE 11.5 mph - 0.09 in   Overcast
5:35 PM 37.4 °F 28.9 °F 33.8 °F 87% 30.06 in 5.0 mi ESE 13.8 mph - 0.17 in   Overcast
5:55 PM 37.4 °F 29.8 °F 33.8 °F 87% 30.07 in 4.0 mi ESE 11.5 mph - 0.23 in   Mostly Cloudy
6:15 PM 37.4 °F 29.3 °F 33.8 °F 87% 30.07 in 5.0 mi ESE 12.7 mph - 0.01 in   Overcast
6:35 PM 37.4 °F 29.8 °F 33.8 °F 87% 30.08 in 5.0 mi SE 11.5 mph - 0.02 in   Overcast
6:55 PM 37.4 °F 28.2 °F 33.8 °F 87% 30.08 in 6.0 mi SE 16.1 mph 19.6 mph 0.02 in   Overcast
7:15 PM 37.4 °F 29.3 °F 33.8 °F 87% 30.10 in 7.0 mi SE 12.7 mph 19.6 mph N/A   Overcast
7:35 PM 37.4 °F 29.8 °F 33.8 °F 87% 30.10 in 4.0 mi SE 11.5 mph - N/A   Overcast
7:55 PM 37.4 °F 29.8 °F 33.8 °F 87% 30.10 in 5.0 mi SSE 11.5 mph - N/A   Overcast
8:15 PM 37.4 °F 29.3 °F 33.8 °F 87% 30.10 in 3.0 mi SSE 12.7 mph - 0.01 in   Overcast
8:35 PM 37.4 °F 30.3 °F 33.8 °F 87% 30.10 in 4.0 mi SSE 10.4 mph - 0.01 in   Overcast
8:55 PM 37.4 °F 31.4 °F 33.8 °F 87% 30.10 in 4.0 mi SE 8.1 mph - 0.01 in   Overcast
9:15 PM 37.4 °F 30.8 °F 33.8 °F 87% 30.10 in 4.0 mi SSE 9.2 mph - N/A   Overcast
9:35 PM 37.4 °F 31.4 °F 33.8 °F 87% 30.10 in 5.0 mi SSE 8.1 mph - N/A   Overcast
9:55 PM 37.4 °F 30.8 °F 35.6 °F 93% 30.10 in 5.0 mi SSE 9.2 mph - N/A   Overcast
10:15 PM 37.4 °F 30.8 °F 35.6 °F 93% 30.10 in 5.0 mi SSE 9.2 mph - N/A   Overcast
10:35 PM 37.4 °F 31.4 °F 35.6 °F 93% 30.10 in 5.0 mi SSE 8.1 mph - N/A   Overcast
10:55 PM 37.4 °F 32.1 °F 35.6 °F 93% 30.09 in 5.0 mi SE 6.9 mph - N/A   Overcast
11:15 PM 39.2 °F 32.5 °F 35.6 °F 87% 30.09 in 5.0 mi SE 10.4 mph - N/A   Overcast
11:35 PM 39.2 °F 34.2 °F 35.6 °F 87% 30.10 in 5.0 mi SE 6.9 mph - N/A   Overcast
11:55 PM 39.2 °F 35.0 °F 35.6 °F 87% 30.11 in 5.0 mi SE 5.8 mph - N/A   Overcast